Weather History for The Villages, FL

Change the Weather History Date:

Saturday, December 28, 2013

  Actual Average (KLEE) Record (KLEE)
Temperature  
Mean Temperature 68 °F -  
Max Temperature 75 °F 69 °F 81 °F (1959)
Min Temperature 60 °F 46 °F 26 °F (1985)
Cooling Degree Days 2    
Growing Degree Days 18 (Base 50)    
Moisture  
Dew Point 65 °F    
Average Humidity 91    
Maximum Humidity 100    
Minimum Humidity 78    
Precipitation  
Precipitation 0.02 in - - ()
Sea Level Pressure  
Sea Level Pressure 30.15 in    
Wind  
Wind Speed 8 mph (ENE)    
Max Wind Speed 13 mph    
Max Gust Speed 16 mph    
Visibility 9 miles    
Events Rain    
Averages and records for this station are not official NWS values.
T = Trace of Precipitation, MM = Missing Value Source: NWS Daily Summary

Daily Weather History Graph

Daily Weather History Graph

Search for Another Location

Airport:

Trip Planner

Search our weather history database for the weather conditions in past years. The results will help you decide how hot, cold, wet, or windy it might be!

Date:

Astronomy

Dec. 28, 2013 Rise Set
Actual Time 7:20 AM EST 5:39 PM EST
Civil Twilight 6:54 AM EST 6:05 PM EST
Nautical Twilight 6:24 AM EST 6:34 PM EST
Astronomical Twilight 5:55 AM EST 7:03 PM EST
Moon 3:06 AM EST (12/28) 2:20 PM EST (12/28)
Length of Visible Light 11h 10m
Length of Day
10h 18m
Waning Crescent, 19% of the Moon is Illuminated
Dec 28
Waning Crescent
Jan 1
New
Jan 7
First Quarter
Jan 15
Full
Jan 24
Last Quarter

Hourly Weather History & Observations

Time (EST) Temp. Dew Point Humidity Pressure Visibility Wind Dir Wind Speed Gust Speed Precip Events Conditions
12:15 AM 60.8 °F 57.2 °F 88% 30.27 in 10.0 mi North 5.8 mph - N/A   Unknown
12:35 AM 60.8 °F 57.2 °F 88% 30.26 in 10.0 mi North 8.1 mph - N/A   Unknown
12:55 AM 60.8 °F 57.2 °F 88% 30.26 in 10.0 mi NNE 8.1 mph - N/A   Unknown
1:15 AM 60.8 °F 57.2 °F 88% 30.24 in 10.0 mi NNE 9.2 mph - N/A   Unknown
1:35 AM 60.8 °F 57.2 °F 88% 30.24 in 10.0 mi NNE 9.2 mph - N/A   Unknown
1:55 AM 60.8 °F 59.0 °F 94% 30.24 in 10.0 mi NNE 6.9 mph - N/A   Unknown
2:15 AM 62.6 °F 59.0 °F 88% 30.23 in 10.0 mi NNE 8.1 mph - N/A   Unknown
2:35 AM 62.6 °F 59.0 °F 88% 30.23 in 10.0 mi NE 6.9 mph - N/A   Unknown
2:55 AM 62.6 °F 59.0 °F 88% 30.23 in 10.0 mi NNE 5.8 mph - N/A   Unknown
3:15 AM 62.6 °F 59.0 °F 88% 30.22 in 10.0 mi NNE 6.9 mph - N/A   Unknown
3:35 AM 62.6 °F 60.8 °F 94% 30.21 in 10.0 mi NE 6.9 mph - N/A   Unknown
3:55 AM 62.6 °F 60.8 °F 94% 30.22 in 10.0 mi NNE 6.9 mph - N/A   Unknown
4:15 AM 62.6 °F 60.8 °F 94% 30.21 in 9.0 mi NE 8.1 mph - N/A   Unknown
4:35 AM 62.6 °F 60.8 °F 94% 30.20 in 5.0 mi NNE 9.2 mph - N/A   Mist
4:55 AM 62.6 °F 60.8 °F 94% 30.19 in 10.0 mi NNE 6.9 mph - N/A   Unknown
5:15 AM 62.6 °F 60.8 °F 94% 30.19 in 10.0 mi NE 5.8 mph - N/A   Unknown
5:35 AM 62.6 °F 60.8 °F 94% 30.18 in 10.0 mi NNE 6.9 mph - N/A   Unknown
5:55 AM 62.6 °F 62.6 °F 100% 30.19 in 10.0 mi NE 8.1 mph - N/A   Unknown
6:15 AM 64.4 °F 62.6 °F 94% 30.19 in 10.0 mi NE 6.9 mph - N/A   Unknown
6:35 AM 64.4 °F 62.6 °F 94% 30.20 in 7.0 mi NE 6.9 mph - N/A   Unknown
6:55 AM 64.4 °F 64.4 °F 100% 30.20 in 5.0 mi ENE 9.2 mph - N/A   Mist
7:15 AM 64.4 °F 64.4 °F 100% 30.20 in 10.0 mi NE 8.1 mph - N/A   Unknown
7:35 AM 64.4 °F 64.4 °F 100% 30.19 in 2.0 mi NE 8.1 mph - N/A   Mist
7:55 AM 64.4 °F 64.4 °F 100% 30.20 in 5.0 mi ENE 6.9 mph - N/A   Mist
8:15 AM 66.2 °F 64.4 °F 94% 30.21 in 2.5 mi ENE 8.1 mph - N/A Rain Light Rain
8:35 AM 66.2 °F 66.2 °F 100% 30.22 in 1.0 mi ENE 6.9 mph - N/A   Mist
8:55 AM 66.2 °F 66.2 °F 100% 30.23 in 0.8 mi East 3.5 mph - 0.01 in Rain Light Rain
9:15 AM 66.2 °F 66.2 °F 100% 30.24 in 1.5 mi Calm Calm - 0.01 in   Mist
9:35 AM 66.2 °F 66.2 °F 100% 30.25 in 3.0 mi Calm Calm - 0.01 in   Mist
9:55 AM 68.0 °F 68.0 °F 100% 30.24 in 1.5 mi ENE 5.8 mph - 0.01 in   Light Drizzle
10:15 AM 68.0 °F 68.0 °F 100% 30.22 in 2.0 mi ENE 6.9 mph - N/A   Mist
10:35 AM 69.8 °F 68.0 °F 94% 30.21 in 8.0 mi ENE 6.9 mph - N/A   Unknown
10:55 AM 69.8 °F 69.8 °F 100% 30.21 in 10.0 mi East 8.1 mph - N/A   Unknown
11:15 AM 71.6 °F 69.8 °F 94% 30.20 in 10.0 mi East 11.5 mph - N/A   Unknown
11:35 AM 73.4 °F 69.8 °F 88% 30.20 in 10.0 mi ESE 9.2 mph - N/A   Unknown
11:55 AM 73.4 °F 69.8 °F 88% 30.20 in 10.0 mi ESE 6.9 mph - N/A   Unknown
12:15 PM 73.4 °F 68.0 °F 83% 30.17 in 10.0 mi East 6.9 mph - N/A   Unknown
12:35 PM 73.4 °F 69.8 °F 88% 30.16 in 10.0 mi East 8.1 mph - N/A   Unknown
12:55 PM 75.2 °F 69.8 °F 83% 30.13 in 10.0 mi East 9.2 mph - N/A   Unknown
1:15 PM 75.2 °F 68.0 °F 78% 30.11 in 10.0 mi East 9.2 mph - N/A   Unknown
1:35 PM 75.2 °F 68.0 °F 78% 30.11 in 9.0 mi ESE 8.1 mph - N/A   Unknown
1:55 PM 73.4 °F 68.0 °F 83% 30.10 in 7.0 mi ESE 12.7 mph - N/A   Unknown
2:15 PM 73.4 °F 69.8 °F 88% 30.09 in 10.0 mi ESE 11.5 mph 16.1 mph N/A   Unknown
2:35 PM 73.4 °F 68.0 °F 83% 30.08 in 10.0 mi East 11.5 mph - N/A   Unknown
2:55 PM 73.4 °F 68.0 °F 83% 30.09 in 10.0 mi East 9.2 mph - N/A   Unknown
3:15 PM 73.4 °F 68.0 °F 83% 30.09 in 10.0 mi ESE 10.4 mph - N/A   Unknown
3:35 PM 73.4 °F 68.0 °F 83% 30.09 in 10.0 mi East 12.7 mph - N/A   Unknown
3:55 PM 73.4 °F 68.0 °F 83% 30.09 in 10.0 mi East 9.2 mph - N/A   Unknown
4:15 PM 73.4 °F 68.0 °F 83% 30.09 in 10.0 mi East 10.4 mph - N/A   Unknown
4:35 PM 73.4 °F 68.0 °F 83% 30.08 in 10.0 mi ESE 10.4 mph - N/A   Unknown
4:55 PM 71.6 °F 68.0 °F 88% 30.08 in 10.0 mi ESE 9.2 mph - N/A   Unknown
5:15 PM 71.6 °F 68.0 °F 88% 30.07 in 10.0 mi ESE 10.4 mph 16.1 mph N/A   Unknown
5:35 PM 71.6 °F 69.8 °F 94% 30.07 in 10.0 mi East 8.1 mph - N/A   Unknown
5:55 PM 71.6 °F 68.0 °F 88% 30.06 in 10.0 mi East 6.9 mph - N/A   Unknown
6:15 PM 71.6 °F 68.0 °F 88% 30.06 in 10.0 mi East 6.9 mph - N/A   Unknown
6:35 PM 69.8 °F 68.0 °F 94% 30.07 in 10.0 mi East 8.1 mph - N/A   Unknown
6:55 PM 69.8 °F 68.0 °F 94% 30.07 in 10.0 mi East 4.6 mph - N/A   Unknown
7:15 PM 69.8 °F 68.0 °F 94% 30.06 in 10.0 mi East 6.9 mph - N/A   Unknown
7:35 PM 69.8 °F 68.0 °F 94% 30.07 in 10.0 mi Calm Calm - N/A   Unknown
7:55 PM 69.8 °F 68.0 °F 94% 30.06 in 10.0 mi East 6.9 mph - N/A   Unknown
8:15 PM 69.8 °F 68.0 °F 94% 30.06 in 10.0 mi East 8.1 mph - N/A   Unknown
8:35 PM 69.8 °F 66.2 °F 88% 30.06 in 10.0 mi East 8.1 mph - N/A   Unknown
8:55 PM 69.8 °F 66.2 °F 88% 30.05 in 10.0 mi East 9.2 mph - N/A   Unknown
9:15 PM 69.8 °F 66.2 °F 88% 30.06 in 10.0 mi ESE 6.9 mph - N/A   Unknown
9:35 PM 69.8 °F 66.2 °F 88% 30.05 in 10.0 mi ESE 6.9 mph - N/A   Unknown
9:55 PM 69.8 °F 66.2 °F 88% 30.04 in 10.0 mi ESE 6.9 mph - N/A   Unknown
10:15 PM 69.8 °F 66.2 °F 88% 30.04 in 10.0 mi ESE 8.1 mph - N/A   Unknown
10:35 PM 69.8 °F 66.2 °F 88% 30.03 in 10.0 mi ESE 9.2 mph - N/A   Unknown
10:55 PM 69.8 °F 66.2 °F 88% 30.02 in 10.0 mi ESE 11.5 mph - N/A   Unknown
11:15 PM 69.8 °F 66.2 °F 88% 30.02 in 10.0 mi SE 10.4 mph 16.1 mph N/A   Unknown
11:35 PM 69.8 °F 66.2 °F 88% 30.04 in 10.0 mi SE 8.1 mph - N/A   Unknown
11:55 PM 69.8 °F 66.2 °F 88% 30.03 in 10.0 mi ESE 9.2 mph - N/A   Unknown